Tiempo cada hora Djelfa

Hoy, 21 Octubre, Miércoles

Tiempo Temperatura Precipitaciones Viento Presión Humedad
00:00 +12°C° 0 mm 9 mps 667 mmHg 48%
01:00 +11°C° 0 mm 9 mps 666 mmHg 49%
02:00 +11°C° 0 mm 9 mps 666 mmHg 50%
03:00 +10°C° 0 mm 9 mps 665 mmHg 51%
04:00 +10°C° 0 mm 8 mps 666 mmHg 52%
05:00 +10°C° 0 mm 7 mps 666 mmHg 52%
06:00 +9°C° 0 mm 6 mps 666 mmHg 53%
07:00 +11°C° 0 mm 6 mps 667 mmHg 47%
08:00 +14°C° 0 mm 7 mps 667 mmHg 41%
09:00 +15°C° 0 mm 7 mps 668 mmHg 35%
10:00 +17°C° 0 mm 8 mps 668 mmHg 31%
11:00 +18°C° 0 mm 8 mps 668 mmHg 28%
12:00 +21°C° 0 mm 8 mps 668 mmHg 24%
13:00 +21°C° 0 mm 8 mps 667 mmHg 25%
14:00 +20°C° 0 mm 8 mps 667 mmHg 26%
15:00 +20°C° 0 mm 8 mps 666 mmHg 27%
16:00 +18°C° 0 mm 8 mps 666 mmHg 30%
17:00 +17°C° 0 mm 8 mps 666 mmHg 32%
18:00 +16°C° 0 mm 7 mps 666 mmHg 35%
19:00 +15°C° 0 mm 7 mps 667 mmHg 37%
20:00 +15°C° 0 mm 7 mps 667 mmHg 40%
21:00 +14°C° 0 mm 7 mps 667 mmHg 42%
22:00 +14°C° 0 mm 7 mps 667 mmHg 44%
23:00 +14°C° 0 mm 7 mps 667 mmHg 45%

Mañana, 22 Octubre, Jueves

Tiempo Temperatura Precipitaciones Viento Presión Humedad
00:00 +12°C° 0 mm 7 mps 667 mmHg 47%
01:00 +12°C° 0 mm 7 mps 667 mmHg 47%
02:00 +12°C° 0 mm 7 mps 667 mmHg 47%
03:00 +12°C° 0 mm 7 mps 666 mmHg 47%
04:00 +13°C° 0 mm 6 mps 667 mmHg 47%
05:00 +13°C° 0 mm 6 mps 667 mmHg 47%
06:00 +13°C° 0 mm 5 mps 667 mmHg 46%
07:00 +14°C° 0 mm 6 mps 667 mmHg 43%
08:00 +16°C° 0 mm 6 mps 668 mmHg 39%
09:00 +18°C° 0 mm 7 mps 669 mmHg 36%
10:00 +21°C° 0 mm 7 mps 669 mmHg 35%
11:00 +22°C° 0 mm 7 mps 668 mmHg 34%
12:00 +23°C° 0 mm 7 mps 668 mmHg 33%
13:00 +23°C° 0 mm 7 mps 668 mmHg 34%
14:00 +23°C° 0 mm 7 mps 667 mmHg 36%
15:00 +23°C° 0 mm 7 mps 667 mmHg 37%
16:00 +21°C° 0 mm 6 mps 667 mmHg 43%
17:00 +20°C° 0 mm 6 mps 667 mmHg 49%
18:00 +17°C° 0 mm 5 mps 667 mmHg 55%
19:00 +17°C° 0 mm 5 mps 667 mmHg 58%
20:00 +17°C° 0 mm 4 mps 667 mmHg 60%
21:00 +17°C° 0 mm 3 mps 668 mmHg 63%
22:00 +17°C° 0 mm 3 mps 668 mmHg 64%
23:00 +17°C° 0 mm 3 mps 668 mmHg 66%

Pasado mañana, 23 Octubre, Viernes

Tiempo Temperatura Precipitaciones Viento Presión Humedad
00:00 +16°C° 0 mm 3 mps 668 mmHg 67%
01:00 +16°C° 0 mm 2 mps 668 mmHg 67%
02:00 +16°C° 0 mm 2 mps 667 mmHg 68%
03:00 +15°C° 0 mm 1 mps 667 mmHg 68%
04:00 +15°C° 0 mm 1 mps 667 mmHg 68%
05:00 +15°C° 0 mm 1 mps 667 mmHg 68%
06:00 +15°C° 0 mm 1 mps 667 mmHg 68%
07:00 +18°C° 0 mm 1 mps 668 mmHg 57%
08:00 +21°C° 0 mm 1 mps 669 mmHg 45%
09:00 +24°C° 0 mm 1 mps 670 mmHg 34%
10:00 +25°C° 0 mm 2 mps 670 mmHg 30%
11:00 +27°C° 0 mm 3 mps 670 mmHg 27%
12:00 +28°C° 0 mm 5 mps 670 mmHg 23%
13:00 +28°C° 0 mm 5 mps 670 mmHg 23%
14:00 +28°C° 0 mm 6 mps 670 mmHg 24%
15:00 +27°C° 0 mm 7 mps 670 mmHg 24%
16:00 +24°C° 0 mm 6 mps 669 mmHg 30%
17:00 +23°C° 0 mm 5 mps 669 mmHg 35%
18:00 +21°C° 0 mm 4 mps 669 mmHg 40%
19:00 +20°C° 0 mm 4 mps 669 mmHg 46%
20:00 +19°C° 0 mm 5 mps 669 mmHg 52%
21:00 +17°C° 0 mm 5 mps 669 mmHg 58%
22:00 +16°C° 0 mm 6 mps 669 mmHg 62%
23:00 +16°C° 0 mm 7 mps 670 mmHg 66%

24 Octubre, Sábado

Tiempo Temperatura Precipitaciones Viento Presión Humedad
00:00 +15°C° 0 mm 7 mps 670 mmHg 70%
01:00 +15°C° 0 mm 7 mps 669 mmHg 71%
02:00 +15°C° 0 mm 6 mps 669 mmHg 72%
03:00 +15°C° 0 mm 5 mps 669 mmHg 73%
04:00 +15°C° 0 mm 4 mps 669 mmHg 72%
05:00 +15°C° 0 mm 4 mps 669 mmHg 71%
06:00 +15°C° 0 mm 4 mps 669 mmHg 71%
07:00 +15°C° 0 mm 4 mps 669 mmHg 68%
08:00 +17°C° 0 mm 4 mps 670 mmHg 65%
09:00 +16°C° 0 mm 5 mps 670 mmHg 62%
10:00 +18°C° 0 mm 4 mps 670 mmHg 57%
11:00 +19°C° 0 mm 4 mps 670 mmHg 52%
12:00 +20°C° 0 mm 4 mps 670 mmHg 47%
13:00 +20°C° 0 mm 4 mps 669 mmHg 45%
14:00 +21°C° 0 mm 4 mps 669 mmHg 43%
15:00 +21°C° 0 mm 4 mps 669 mmHg 40%
16:00 +20°C° 0 mm 4 mps 669 mmHg 43%
17:00 +19°C° 0 mm 3 mps 668 mmHg 45%
18:00 +18°C° 0 mm 3 mps 668 mmHg 48%
19:00 +17°C° 0 mm 2 mps 668 mmHg 49%
20:00 +16°C° 0 mm 1 mps 668 mmHg 51%
21:00 +15°C° 0 mm 1 mps 668 mmHg 52%
22:00 +15°C° 0 mm 1 mps 668 mmHg 54%
23:00 +13°C° 0 mm 0 mps 668 mmHg 55%

25 Octubre, Domingo

Tiempo Temperatura Precipitaciones Viento Presión Humedad
00:00 +13°C° 0 mm 0 mps 667 mmHg 57%
01:00 +14°C° 0 mm 1 mps 667 mmHg 58%
02:00 +14°C° 0 mm 1 mps 667 mmHg 59%
03:00 +14°C° 0 mm 1 mps 666 mmHg 60%
04:00 +14°C° 0 mm 1 mps 666 mmHg 61%
05:00 +14°C° 0 mm 1 mps 666 mmHg 61%
06:00 +13°C° 0 mm 1 mps 666 mmHg 62%
07:00 +14°C° 0.6 mm 1 mps 666 mmHg 61%
08:00 +16°C° 0.6 mm 2 mps 667 mmHg 60%
09:00 +17°C° 0.6 mm 3 mps 667 mmHg 59%
10:00 +18°C° 0.2 mm 3 mps 667 mmHg 53%
11:00 +19°C° 0.2 mm 4 mps 667 mmHg 47%
12:00 +20°C° 0.2 mm 5 mps 668 mmHg 41%
13:00 +21°C° 0 mm 5 mps 667 mmHg 37%
14:00 +21°C° 0 mm 5 mps 667 mmHg 34%
15:00 +21°C° 0 mm 6 mps 667 mmHg 30%
16:00 +20°C° 0 mm 5 mps 667 mmHg 33%
17:00 +19°C° 0 mm 4 mps 666 mmHg 36%
18:00 +17°C° 0 mm 4 mps 666 mmHg 39%
19:00 +15°C° 0 mm 4 mps 666 mmHg 44%
20:00 +14°C° 0 mm 4 mps 666 mmHg 48%
21:00 +13°C° 0 mm 3 mps 667 mmHg 53%
22:00 +13°C° 0 mm 4 mps 666 mmHg 56%
23:00 +12°C° 0 mm 4 mps 666 mmHg 60%

26 Octubre, Lunes

Tiempo Temperatura Precipitaciones Viento Presión Humedad
00:00 +11°C° 0 mm 4 mps 666 mmHg 63%
01:00 +10°C° 0 mm 5 mps 666 mmHg 59%
02:00 +10°C° 0 mm 5 mps 666 mmHg 55%
03:00 +9°C° 0 mm 6 mps 666 mmHg 51%
04:00 +9°C° 0 mm 6 mps 665 mmHg 52%
05:00 +8°C° 0 mm 6 mps 665 mmHg 52%
06:00 +8°C° 0 mm 6 mps 665 mmHg 52%
07:00 +9°C° 0 mm 6 mps 666 mmHg 50%
08:00 +11°C° 0 mm 7 mps 666 mmHg 48%
09:00 +12°C° 0 mm 8 mps 667 mmHg 46%
10:00 +13°C° 0 mm 9 mps 667 mmHg 46%
11:00 +14°C° 0 mm 10 mps 666 mmHg 47%
12:00 +16°C° 0 mm 11 mps 666 mmHg 48%
13:00 +14°C° 0 mm 11 mps 666 mmHg 52%
14:00 +14°C° 0 mm 11 mps 666 mmHg 57%
15:00 +13°C° 0 mm 11 mps 665 mmHg 61%
16:00 +12°C° 0 mm 10 mps 665 mmHg 63%
17:00 +11°C° 0 mm 10 mps 665 mmHg 65%
18:00 +9°C° 0 mm 10 mps 666 mmHg 66%
19:00 +10°C° 0 mm 9 mps 666 mmHg 68%
20:00 +8°C° 0 mm 9 mps 666 mmHg 70%
21:00 +7°C° 0 mm 9 mps 666 mmHg 73%
22:00 +7°C° 0 mm 8 mps 666 mmHg 75%
23:00 +6°C° 0 mm 8 mps 665 mmHg 78%

27 Octubre, Martes

Tiempo Temperatura Precipitaciones Viento Presión Humedad
00:00 +5°C° 0 mm 8 mps 665 mmHg 80%
01:00 +5°C° 0 mm 8 mps 665 mmHg 79%
02:00 +5°C° 0 mm 8 mps 664 mmHg 78%
03:00 +4°C° 0 mm 8 mps 664 mmHg 76%
04:00 +4°C° 0 mm 7 mps 664 mmHg 76%
05:00 +4°C° 0 mm 7 mps 664 mmHg 75%
06:00 +4°C° 0 mm 7 mps 664 mmHg 74%
07:00 +5°C° 0 mm 7 mps 664 mmHg 68%
08:00 +6°C° 0 mm 7 mps 665 mmHg 62%
09:00 +8°C° 0 mm 7 mps 665 mmHg 56%
10:00 +9°C° 0 mm 8 mps 665 mmHg 51%
11:00 +10°C° 0 mm 9 mps 665 mmHg 47%
12:00 +11°C° 0 mm 9 mps 665 mmHg 43%
13:00 +12°C° 0 mm 9 mps 665 mmHg 42%
14:00 +12°C° 0 mm 9 mps 665 mmHg 40%
15:00 +12°C° 0 mm 9 mps 665 mmHg 39%
16:00 +11°C° 0 mm 8 mps 665 mmHg 42%
17:00 +11°C° 0 mm 7 mps 665 mmHg 44%
18:00 +10°C° 0 mm 6 mps 665 mmHg 47%
19:00 +9°C° 0 mm 6 mps 665 mmHg 52%
20:00 +9°C° 0 mm 6 mps 665 mmHg 57%
21:00 +8°C° 0 mm 6 mps 665 mmHg 61%
22:00 +8°C° 0 mm 5 mps 665 mmHg 67%
23:00 +7°C° 0 mm 4 mps 665 mmHg 72%
Mostrar más

Necesitamos Su Consentimiento

Meteoprog y nuestros Proveedores de Servicios pueden almacenar y acceder a sus datos personales como cookies, identificadores de dispositivo u otras tecnologías similares de su dispositivo y procesar dichos datos para personalizar contenido y anuncios, además de ofrecer funciones de redes sociales y analizar el tráfico.

  • Almacenar y/o acceder a información en su dispositivo

    Se puede almacenar o acceder a cookies, identificadores de dispositivo u otra información de su dispositivo para los fines anteriormente indicados.

  • Anuncios y contenido personalizados, medición de anuncios y contenido, percepciones del público, y desarrollo de productos

    Los anuncios y el contenido pueden personalizarse en base a su perfil. Se pueden añadir más datos para personalizar mejor los anuncios y contenidos. Se puede medir el rendimiento de los anuncios y contenidos. Se puede obtener la percepción sobre el público que ha visto los anuncios y contenidos. Dichos datos pueden usarse para desarrollar o mejorar la experiencia del usuario, sistemas y software.

Al hacer clic en ‘Estoy De Acuerdo’ usted permitirá el uso de las cookies, identificadores de dispositivo, balizas web u otras tecnologías similares indicadas. Su configuración puede cambiarse desde el navegador de su dispositivo.

Para ciertos fines, los intereses legítimos pueden ser considerados por encima del consentimiento. Puede leer más sobre ello en nuestra Política de Privacidad y Cookies.